sat.trackr.live / text

‹ back to catalog

STARLINK-35736

NORAD 66230 · 2025-244AA

PAYLOAD ACTIVE UNKNOWN

§ Identity

Operator
Country
US
Launch date
2025-10-28
Launch site
AFWTR
Launch vehicle
Mass (kg)
RCS (m²)

Purposes: comms

External: N2YO · Heavens-Above · Gunter

§ Orbital elements

Epoch: 2026-09-20T13:12:50.575104Z

Period
93.85 min
Inclination
53.1611°
Eccentricity
0.0001409
Mean motion
15.34410344 rev/d
Perigee alt
461.7 km
Apogee alt
463.6 km
Semi-major
6,840.8 km
B*
5.6479e-4
RAAN
43.3864°
Arg perigee
127.8198°
Mean anomaly
232.2933°
Rev number
5,151

§ Raw data

STARLINK-357361 66230U 25244AA  26263.55058536  .00018760  00000+0  56479-3 0  99952 66230  53.1611  43.3864 0001409 127.8198 232.2933 15.34410344 51519

JSON: /api/v1/satellites/66230 · /tle

For live sub-satellite position, see the globe view (requires WebGL).

§ Visibility from observer

Set your observer location to see the next 7 days of passes ≥ 10°. The values pass through the URL so the page stays shareable.

No JS? Fill the form by hand. The geolocation button needs JavaScript.